Theta_e
320 321 319 318 320 316 317 316 317 316 316 317 315 317 317 318 317 317 320 320 321 320 320 321 321 321 323 325 327 328 328 326 327 329 324 317 314 314 313 313 312 313 312 312
320 319 316 315 318 318 315 317 316 316 315 315 315 315 314 313 315 316 317 319 322 321 321 320 319 321 321 322 322 326 328 328 328 328 325 325 318 314 314 314 314 313 312 312
318 316 316 316 318 320 318 317 316 318 317 316 317 318 317 315 316 317 318 319 320 320 320 319 319 319 321 321 322 322 325 328 327 328 329 327 326 321 317 314 314 314 314 313
317 314 316 317 318 319 319 318 316 317 318 317 316 319 316 315 314 314 316 317 318 318 318 318 319 319 319 320 322 322 324 327 328 328 331 330 326 323 322 318 316 315 314 314
316 315 315 317 317 318 316 316 318 316 316 317 317 317 316 315 315 314 315 317 317 317 318 318 318 319 319 319 320 320 322 326 328 329 329 330 330 327 323 323 321 319 317 315
313 314 314 316 315 315 314 315 315 315 317 319 317 316 315 313 314 312 314 315 316 316 316 317 318 318 318 318 318 319 321 322 325 328 329 329 329 329 328 325 323 322 322 320
314 313 313 315 315 314 315 316 308 320 319 317 312 315 315 312 312 312 312 314 316 316 316 317 317 318 318 318 320 320 320 321 321 324 326 328 328 328 329 329 327 325 322 321
314 315 313 313 316 316 317 316 315 310 312 314 312 317 315 313 314 315 315 315 315 316 316 317 318 320 321 321 320 320 320 319 322 324 324 325 327 328 328 328 329 328 327 324
314 313 310 312 313 314 315 318 313 310 305 308 311 312 313 313 312 312 314 314 316 314 316 316 316 312 312 315 315 318 320 320 321 322 324 326 328 329 327 327 327 328 328 328
310 312 309 311 312 313 314 313 317 314 314 314 313 314 313 314 314 312 312 312 313 313 314 313 311 312 313 314 314 313 313 313 317 319 322 324 326 327 328 328 328 328 328 328
309 309 308 309 312 315 315 314 313 313 312 312 311 311 309 311 309 311 310 312 312 312 311 311 311 311 312 312 311 312 312 313 314 314 313 316 318 319 322 324 325 327 327 328
310 309 308 311 311 312 313 314 314 314 312 309 311 311 311 310 309 311 312 310 310 310 310 310 310 310 310 312 313 314 314 313 311 312 313 313 312 317 323 324 326 326 327 328
311 312 310 312 312 312 313 313 313 312 310 313 314 313 310 311 310 312 310 309 310 310 310 309 309 309 309 309 310 311 311 311 311 310 311 312 312 311 315 324 326 327 327 328
311 311 312 312 311 311 312 312 313 314 314 313 313 311 309 310 310 310 308 309 309 309 309 309 309 309 308 308 308 308 309 310 310 311 310 311 311 312 312 311 318 325 326 326
311 313 311 309 309 311 312 312 313 314 314 314 312 312 311 309 310 310 309 309 308 308 308 308 308 309 309 309 309 309 309 308 308 310 310 311 311 311 312 311 310 312 314 319
311 312 311 311 310 309 311 312 312 314 314 313 311 310 309 310 310 309 309 308 308 308 308 308 308 308 308 308 309 310 310 308 308 309 308 310 311 311 312 312 312 310 312 314
311 311 311 313 310 311 310 310 311 311 312 312 313 312 308 308 308 308 307 307 307 306 305 305 304 304 305 305 306 307 308 309 309 309 308 306 308 312 313 312 312 312 310 314
310 311 310 309 311 314 310 307 308 311 310 311 311 309 309 308 308 307 306 305 302 301 301 301 301 301 301 301 302 303 305 307 308 309 309 308 306 307 312 313 312 312 312 311
310 310 308 310 312 307 305 305 306 307 307 306 309 307 307 306 305 301 301 300 299 298 298 298 298 298 299 299 299 301 302 305 307 308 309 309 308 307 307 312 313 311 310 312
310 310 309 304 310 311 306 304 305 304 305 299 303 304 306 306 307 301 297 298 297 297 297 298 298 297 298 298 299 300 300 301 304 306 308 308 308 307 306 306 309 311 310 310
311 309 310 306 301 302 297 296 303 305 304 292 292 294 299 299 296 294 295 295 294 295 296 296 296 297 297 297 298 299 299 299 300 303 306 308 309 308 307 306 306 307 308 308
309 308 308 303 303 306 287 295 303 295 288 286 286 286 289 290 292 292 292 293 294 294 294 294 295 295 295 295 296 296 297 298 298 299 302 305 307 308 308 306 306 306 306 306
307 301 303 299 296 285 283 284 283 285 282 281 282 283 285 286 287 288 289 290 290 290 291 291 292 293 293 293 293 294 295 296 297 298 299 301 304 307 308 306 305 304 305 304
294 286 296 294 286 283 281 280 279 279 278 278 280 280 282 282 282 284 285 285 286 287 288 288 290 291 292 292 292 292 292 294 295 297 298 298 300 304 306 307 304 302 301 302
280 283 288 286 283 282 279 277 277 277 277 278 278 278 279 279 279 281 282 283 283 284 285 286 287 289 290 291 291 290 290 290 292 294 296 297 297 299 303 306 304 300 300 299
275 276 282 284 277 279 278 275 275 275 275 275 276 278 277 277 277 279 281 281 282 283 284 285 286 287 289 289 290 289 289 289 289 292 293 294 295 296 298 301 305 303 301 300
Wind_Speed
20 10 21 29 18 8 10 5 10 3 6 2 7 15 13 27 28 29 33 30 32 28 27 26 23 21 21 30 32 31 32 33 32 34 36 39 40 38 36 36 34 33 30 28
7 25 19 8 10 13 7 14 9 4 4 7 9 16 13 14 23 25 28 33 31 27 26 29 30 28 26 28 28 33 35 36 37 36 35 38 39 40 39 38 39 36 34 31
16 11 12 12 13 14 18 18 8 4 2 4 2 16 11 7 17 22 16 15 15 18 23 35 36 33 30 30 30 32 35 39 38 39 39 38 38 41 44 44 44 41 38 36
14 22 20 13 16 18 20 15 6 7 5 8 5 10 6 4 9 8 18 18 21 25 30 31 36 35 35 38 35 32 34 39 41 40 43 44 42 42 44 48 46 43 42 41
16 12 15 18 23 18 10 10 13 6 6 1 9 2 5 4 8 8 14 24 24 22 24 27 34 31 30 31 34 39 38 40 43 44 45 45 47 44 38 46 49 46 45 44
18 10 18 13 11 17 6 5 4 4 6 11 19 6 16 11 9 8 14 26 25 28 27 30 32 31 32 31 32 33 39 42 41 43 46 48 48 46 45 46 48 48 47 46
16 15 3 13 7 8 8 7 1 7 8 16 9 7 23 5 9 12 14 27 32 30 32 30 27 21 30 25 19 28 34 41 42 46 47 50 47 47 47 47 49 51 49 47
16 11 22 8 14 8 18 18 6 8 6 6 5 10 13 6 22 29 31 35 31 30 29 25 17 12 10 12 16 17 21 31 40 47 47 49 52 50 50 49 49 50 55 51
16 17 7 4 5 17 8 13 12 5 2 3 5 7 7 9 10 11 17 19 11 3 7 7 9 10 7 7 8 12 16 18 21 32 43 49 52 55 53 52 52 54 51 53
6 6 5 22 6 14 12 9 7 7 6 6 4 4 6 2 2 6 4 12 7 11 8 12 17 16 14 14 15 16 15 13 17 23 29 36 43 49 54 53 55 55 54 52
6 4 4 15 17 15 8 8 5 4 5 5 3 6 8 12 8 7 7 7 9 11 13 13 13 13 13 13 15 16 15 14 14 16 20 31 38 42 46 49 49 53 54 55
13 3 4 18 22 20 18 21 17 7 6 3 2 7 3 7 9 12 8 9 12 11 12 14 14 15 16 17 15 16 19 21 18 19 22 24 28 34 40 45 47 45 49 51
17 5 5 3 2 0 23 14 16 7 3 8 8 10 6 6 9 9 11 10 7 8 9 12 16 18 19 18 18 19 22 24 24 26 24 23 24 28 35 41 43 45 45 47
28 5 13 15 17 13 19 27 20 19 11 18 12 18 8 5 7 2 11 7 5 7 9 12 15 18 20 22 24 24 24 26 28 29 30 32 31 25 27 34 41 44 45 45
17 17 11 7 5 18 22 26 24 19 26 16 20 15 15 8 4 10 11 9 9 8 10 12 14 16 19 23 25 30 30 31 31 30 32 33 32 33 30 28 32 38 44 46
17 7 16 12 1 8 13 18 20 23 24 18 11 11 6 11 9 10 9 9 8 7 8 10 13 16 20 23 26 29 29 34 34 33 31 28 31 32 33 33 30 32 36 39
18 12 9 18 7 5 1 20 19 16 16 19 15 26 7 5 8 13 14 9 9 7 9 12 16 18 20 23 26 27 29 33 34 31 32 33 27 28 31 32 34 33 34 34
12 19 7 3 10 13 3 14 16 20 15 16 17 5 13 10 13 17 11 10 9 8 9 11 13 16 20 22 22 25 27 29 32 32 34 35 34 30 28 31 36 36 33 35
14 8 4 6 8 1 1 4 9 11 9 4 13 6 9 30 23 14 9 8 8 9 12 14 17 19 22 24 26 28 28 29 32 33 33 35 38 38 32 31 33 36 35 32
13 12 5 4 5 5 5 2 3 7 3 8 5 8 10 20 7 3 5 5 7 10 14 18 20 22 23 25 27 29 30 32 32 34 35 34 36 39 38 35 33 34 34 34
9 7 8 4 3 4 5 11 2 8 2 10 14 16 12 5 6 5 3 6 10 14 16 19 21 23 24 26 29 30 32 33 34 34 35 36 36 38 38 37 35 32 33 32
5 6 2 3 4 6 20 7 3 6 12 13 15 16 15 10 5 5 7 11 13 16 18 20 23 24 24 26 29 31 32 34 36 37 35 36 37 37 38 37 36 32 30 32
3 1 4 3 4 7 18 19 15 15 13 10 12 12 11 10 10 11 13 14 16 19 21 22 24 26 26 27 29 32 33 35 36 38 40 37 36 37 38 38 36 34 29 27
3 14 4 6 6 11 13 15 16 15 15 12 11 11 11 12 11 12 14 18 21 23 25 26 27 28 28 29 30 30 32 34 36 38 39 41 39 37 37 38 36 33 29 27
5 10 5 8 11 12 14 16 14 13 12 11 11 12 12 11 11 15 18 20 23 24 26 27 28 29 30 30 30 31 33 35 36 37 38 39 41 39 37 36 35 33 28 24
11 6 4 3 7 5 8 9 13 11 13 13 15 13 11 12 15 18 19 21 23 26 27 28 29 30 31 32 32 32 33 35 37 38 38 39 40 40 38 37 37 33 30 24
Wind_Direction
185 191 211 206 204 194 188 201 210 210 232 204 238 259 251 257 257 253 256 254 263 272 281 281 288 288 277 265 258 255 249 246 240 238 239 238 238 239 241 244 245 245 244 244
168 216 215 149 196 203 202 212 215 257 210 171 265 266 254 243 257 252 256 256 251 261 271 282 282 281 277 269 269 262 256 249 246 242 244 243 244 244 245 247 246 246 245 245
196 226 165 177 193 199 219 219 186 175 198 250 322 283 262 236 246 256 254 257 260 266 271 278 280 269 266 269 266 262 262 255 251 248 245 244 245 249 248 247 247 245 245 245
221 226 187 187 201 195 217 215 163 187 160 240 154 265 239 201 246 244 263 259 267 273 275 274 273 273 266 264 267 264 260 257 253 249 247 247 246 249 252 250 252 252 247 247
209 170 202 197 207 182 223 170 193 175 194 97 242 268 270 185 250 253 266 272 272 273 275 275 267 267 270 274 269 261 259 257 252 249 250 252 250 250 258 256 254 254 254 251
214 194 183 203 196 194 137 84 132 144 187 236 239 179 267 239 248 249 241 258 264 272 273 276 270 279 278 279 274 268 259 255 253 252 254 251 253 253 253 253 256 255 254 255
217 226 254 176 145 181 174 141 193 214 215 236 152 176 243 242 244 251 268 268 270 272 277 273 279 268 287 281 281 267 263 259 257 251 252 253 254 255 256 257 259 258 258 256
194 205 217 181 201 181 197 201 191 197 204 234 158 222 237 234 247 257 255 268 273 275 275 277 273 277 283 286 275 283 276 266 259 256 256 258 257 256 259 260 260 263 261 260
201 218 205 188 147 169 195 207 202 97 100 82 209 279 292 251 268 294 274 268 265 196 139 100 72 32 9 16 332 287 273 270 265 263 262 260 262 259 260 263 264 263 264 263
205 197 197 194 152 211 181 157 179 208 194 227 240 264 233 281 244 344 129 161 128 105 92 52 30 24 15 12 8 4 359 319 283 267 264 266 266 267 266 265 266 266 268 266
196 144 229 159 203 181 174 203 197 173 173 189 195 247 205 232 215 161 145 121 63 69 42 36 26 17 7 353 342 339 339 334 330 324 294 272 267 266 266 265 264 265 266 265
197 169 167 199 208 205 197 209 199 204 221 214 132 254 224 213 139 138 127 98 73 62 42 33 19 360 348 342 337 330 327 327 324 320 320 312 290 274 268 266 264 266 266 266
188 201 150 102 34 319 211 206 205 197 87 196 197 247 152 134 135 84 106 99 87 57 29 19 11 11 359 346 328 313 312 315 312 308 305 307 313 296 273 269 268 267 266 267
182 166 215 209 207 183 197 210 202 202 208 222 211 230 263 212 151 117 134 131 77 52 32 21 9 8 10 6 4 354 339 329 320 309 305 303 307 305 300 276 267 267 267 266
201 206 198 234 259 182 200 202 201 203 218 214 231 229 223 257 179 163 159 156 133 96 52 28 13 1 355 351 348 351 355 349 339 325 314 309 303 301 297 293 279 271 265 263
196 213 199 207 294 171 195 202 198 207 221 221 224 253 173 201 195 161 161 137 101 60 33 9 355 346 345 342 341 337 343 346 348 343 329 314 306 301 297 290 291 282 272 265
187 188 181 206 156 94 241 206 195 207 213 210 217 236 105 187 190 164 152 141 108 74 29 7 356 350 343 337 333 329 327 326 332 345 338 325 311 298 296 289 283 283 280 272
188 193 185 160 164 215 228 176 181 202 213 212 231 230 185 190 130 112 106 109 77 44 16 358 345 336 335 335 332 327 329 326 320 330 334 337 326 309 294 292 289 281 279 275
183 156 155 164 200 330 309 155 162 170 216 208 226 187 154 129 114 81 79 69 47 14 355 344 337 335 331 327 325 326 331 327 329 325 325 331 333 326 310 292 293 293 282 273
190 193 158 168 167 179 195 176 69 101 237 354 256 185 150 154 164 131 45 13 354 346 340 330 328 331 328 326 326 326 329 332 330 330 329 328 330 331 326 308 293 293 290 280
183 184 192 146 111 282 359 324 321 152 187 31 43 45 64 94 69 105 359 339 341 339 330 323 325 329 331 327 325 327 329 329 330 328 328 328 328 330 332 320 303 297 292 283
154 136 181 108 107 233 353 323 171 76 68 54 49 48 58 76 69 19 349 340 334 328 327 325 325 328 330 330 328 327 329 325 324 326 328 329 329 330 328 327 314 302 296 285
124 20 134 23 109 72 49 70 55 77 79 46 45 40 42 31 14 353 345 339 335 332 330 329 326 324 329 331 333 331 330 326 322 322 325 328 328 327 328 328 323 310 302 293
78 16 89 134 72 77 65 64 58 58 58 47 39 30 24 21 2 347 343 339 336 335 333 331 329 326 329 330 332 332 330 325 325 323 323 325 327 327 326 326 327 318 308 298
346 325 42 93 111 105 62 47 37 37 38 33 27 19 17 7 350 341 340 336 334 333 331 330 328 325 326 325 328 332 328 326 323 321 320 322 325 326 324 322 323 321 312 299
2 11 28 77 37 9 66 40 26 20 16 11 4 5 7 350 343 340 335 332 331 330 329 325 324 323 323 323 326 330 326 324 323 319 317 317 319 323 324 321 319 319 317 311